Wind_Speed
13 16 21 25 29 31 30 32 29 24 27 34 33 25 21 30 19 24 26 26 17 16 9 9 7 10 10 12 11 10 11 15 11 10 12 14 17 16 14 14 14 12 11
18 19 21 27 32 35 38 39 38 33 29 33 42 45 32 37 27 20 22 24 21 14 10 9 10 8 10 7 9 6 10 14 10 10 12 13 16 16 14 15 15 15 14
16 17 19 21 26 31 33 36 40 42 40 35 41 47 44 43 37 24 19 20 20 15 11 12 10 7 6 7 7 4 9 14 8 9 11 10 15 15 14 15 17 18 19
21 18 16 16 17 18 21 25 29 27 36 40 36 41 48 42 40 29 19 17 17 20 20 13 11 8 7 10 5 5 5 8 6 8 9 11 13 14 13 15 16 18 17
16 15 13 11 13 16 18 21 21 21 25 32 33 35 40 45 44 33 27 22 21 20 21 16 10 9 9 10 6 7 2 6 8 6 8 9 11 12 11 13 13 15 15
14 13 12 12 14 13 12 15 19 19 20 30 32 32 35 39 42 39 32 28 26 20 20 16 11 10 8 6 6 2 1 3 11 3 6 7 10 10 8 9 12 14 15
15 14 14 14 14 12 12 12 16 22 25 26 32 34 34 33 36 40 38 24 23 27 33 21 14 11 9 12 12 13 5 3 9 1 3 5 7 7 8 9 9 11 13
16 16 16 15 14 14 14 11 15 18 21 27 33 36 37 32 32 39 38 31 19 30 23 20 17 19 14 14 16 16 10 3 3 3 2 3 5 5 7 10 8 9 10
13 16 16 17 15 15 13 6 10 15 21 27 31 37 39 37 34 37 30 32 29 29 19 20 18 23 22 14 14 15 9 4 3 4 5 4 3 4 3 7 7 4 6
15 15 15 16 16 15 15 3 5 8 10 20 28 36 41 40 38 32 31 32 39 35 32 18 20 18 13 15 14 11 9 2 7 6 5 3 2 3 3 5 5 4 3
19 17 15 16 15 14 13 4 7 4 7 8 18 32 38 42 40 37 31 30 29 37 37 30 19 16 15 16 17 11 8 6 7 6 6 5 3 2 6 3 5 4 3
21 20 17 15 14 13 11 5 6 2 3 7 9 21 33 38 40 39 37 40 34 32 40 33 26 21 21 20 18 12 9 7 10 10 8 8 4 2 3 1 4 3 2
24 23 19 15 14 11 10 6 5 3 2 9 12 18 30 36 38 41 41 40 39 38 30 32 29 20 21 19 18 13 7 9 10 13 11 6 5 3 2 2 4 3 4
16 21 19 17 15 11 10 6 2 5 3 12 13 19 28 33 41 43 41 38 27 29 26 27 28 26 25 19 22 21 15 14 12 13 12 8 6 4 4 4 6 4 5
13 17 22 18 15 12 8 5 0 5 8 11 17 22 26 32 32 35 34 34 35 31 30 31 28 25 25 22 24 22 19 16 13 13 13 11 8 7 6 7 7 6 6
12 14 19 21 18 15 10 6 2 3 8 13 16 24 30 34 32 31 32 33 38 35 35 32 29 31 29 27 26 22 18 19 15 15 17 14 11 10 9 9 6 4 4
14 15 17 20 21 18 14 10 5 4 6 8 19 23 31 37 37 38 35 36 37 39 37 36 32 29 29 29 30 22 21 19 17 19 19 15 14 14 11 11 9 6 5
20 17 17 18 22 22 19 16 12 9 11 11 13 21 25 35 36 37 37 38 37 34 34 33 32 31 32 32 31 26 23 21 19 20 20 18 17 17 14 12 10 8 6
21 22 18 20 21 25 25 22 17 13 12 15 17 19 20 25 28 33 35 38 39 37 35 33 32 30 28 27 26 29 28 21 21 21 19 17 17 18 17 14 11 10 14
14 22 23 19 23 24 29 28 24 21 17 15 18 19 20 20 19 26 30 33 35 34 33 31 31 28 29 29 30 30 30 26 25 22 20 20 20 18 20 19 15 12 12
17 16 24 27 21 25 26 32 31 28 24 21 19 19 19 22 24 23 23 23 24 24 23 24 26 26 28 30 29 26 25 26 24 22 23 22 21 20 20 23 20 17 15
22 19 18 25 30 25 28 29 36 34 31 27 23 21 19 18 22 21 21 23 22 24 23 23 22 24 24 26 28 28 26 23 24 24 22 23 22 20 22 25 24 25 23
25 24 23 23 30 33 29 32 32 40 38 33 29 26 23 22 20 16 14 19 23 21 20 21 20 22 19 19 24 25 27 23 23 21 23 24 24 24 25 27 27 27 27
30 30 27 27 27 35 37 34 36 35 43 39 35 30 27 23 23 20 18 15 16 24 25 21 22 19 17 16 16 16 16 16 15 17 18 21 25 29 29 30 29 28 30
39 36 31 32 32 33 40 42 39 39 39 45 42 37 32 29 25 23 18 20 18 17 25 29 25 21 19 18 14 14 16 14 14 15 14 18 21 24 27 32 35 34 32
44 43 40 36 35 37 38 44 47 43 42 43 48 44 38 34 30 27 23 20 23 20 20 23 29 26 21 19 18 8 12 17 6 1 3 6 7 8 19 26 30 32 35
Wind_Direction
256 254 242 238 234 244 249 251 251 242 222 207 202 200 238 232 242 250 251 259 241 247 212 245 268 293 332 355 334 352 16 13 19 30 33 42 35 38 41 46 55 49 46
256 257 251 251 251 253 254 254 252 242 225 219 207 212 216 230 231 247 233 240 242 228 213 237 263 292 329 338 342 2 13 13 13 32 29 44 36 43 51 57 52 49 61
248 257 252 251 255 258 260 260 256 248 240 225 220 213 214 230 233 218 214 229 230 221 246 233 254 290 303 326 328 333 16 8 357 51 30 48 40 47 60 59 72 67 66
260 251 243 253 259 268 260 254 254 252 235 233 222 225 232 230 219 215 227 228 229 227 240 240 258 267 292 299 267 281 358 13 18 52 33 49 48 49 62 73 80 65 62
258 250 262 274 285 289 286 274 252 247 234 223 224 225 225 229 230 221 218 205 218 211 234 253 221 245 286 304 256 269 32 6 11 39 38 63 56 49 68 85 76 66 50
266 273 279 284 288 294 293 265 246 245 238 226 221 222 222 224 224 223 209 205 215 219 230 207 207 243 274 309 286 253 1 10 350 43 56 75 66 49 53 75 81 63 67
264 275 285 292 300 308 300 251 245 244 243 234 225 219 216 217 219 217 210 195 197 207 226 206 234 225 246 283 297 289 260 332 339 25 84 72 63 52 63 65 97 70 73
272 276 288 298 300 309 310 286 257 244 244 238 229 220 215 212 212 209 216 204 201 207 200 210 218 248 276 288 280 279 264 268 343 300 139 84 57 47 85 66 107 93 73
276 280 287 295 301 316 326 292 277 268 255 237 223 217 214 212 207 205 213 199 194 212 207 217 227 258 265 280 280 263 236 249 252 261 191 144 81 12 103 79 80 108 87
267 278 283 286 295 314 333 299 267 309 292 229 220 210 210 209 207 204 208 201 206 223 225 235 244 248 247 265 268 254 240 268 271 241 214 169 124 326 314 127 111 83 133
264 267 274 282 288 310 337 334 5 322 337 223 208 210 206 205 206 207 205 198 220 222 225 233 237 239 253 258 252 239 235 262 288 210 201 198 215 278 312 195 140 120 146
260 257 263 273 283 305 332 355 10 295 327 199 191 196 201 200 202 205 204 198 205 219 227 231 237 247 257 252 242 237 233 248 268 233 223 212 222 259 320 259 180 193 168
259 254 249 260 276 295 323 340 35 65 320 184 166 179 186 192 195 201 205 209 217 224 236 237 233 233 245 241 240 243 247 241 266 255 235 230 228 230 239 196 212 217 242
249 248 239 246 261 273 304 328 57 75 84 164 153 164 179 187 192 199 204 211 208 200 218 225 226 210 222 238 248 252 257 245 249 255 240 228 245 237 228 202 201 224 219
257 245 238 236 243 258 274 301 247 95 159 139 158 163 174 175 185 193 199 202 200 200 210 222 222 222 219 233 249 255 253 236 235 240 249 223 221 227 218 208 202 232 232
278 256 241 231 233 241 244 261 244 143 153 161 161 167 168 168 175 181 195 196 199 205 212 223 223 231 231 227 240 251 247 242 233 233 241 232 219 217 218 221 226 224 186
294 278 259 240 231 231 234 226 211 206 171 176 182 181 182 180 185 190 193 197 202 205 210 216 220 231 230 234 236 244 244 229 229 241 247 234 218 217 217 215 213 217 167
306 293 274 260 240 230 229 226 219 194 195 184 184 189 192 192 200 200 204 207 210 212 220 224 225 228 234 234 237 238 239 224 221 239 247 237 224 216 217 215 211 206 211
301 298 284 270 257 236 229 223 222 214 199 198 190 189 196 204 209 214 218 220 222 224 225 228 228 231 233 232 227 225 230 233 224 232 238 238 231 224 220 221 215 211 202
288 287 290 274 263 252 232 226 219 220 211 201 198 203 203 205 208 210 212 218 222 221 223 223 221 221 221 225 231 229 230 232 227 234 236 233 237 233 230 229 231 231 233
297 281 279 283 269 259 250 228 223 218 220 211 206 201 203 211 209 209 209 208 212 210 209 214 222 226 230 229 228 220 224 223 226 232 229 233 238 238 237 235 236 238 242
297 291 276 267 274 258 254 247 228 222 221 217 210 208 208 212 205 205 216 222 223 220 216 222 222 222 219 217 218 216 215 220 222 229 232 234 236 240 243 242 244 246 242
294 289 282 269 257 265 249 247 242 228 223 222 216 211 210 203 200 195 196 212 223 224 220 221 222 226 230 223 215 217 222 223 227 235 242 243 250 252 247 249 249 249 248
293 288 282 270 259 251 259 243 243 239 229 221 223 218 213 212 209 207 206 198 205 214 219 217 220 225 217 192 200 195 200 210 221 238 246 256 258 252 248 248 244 255 251
297 291 281 277 263 253 247 253 242 238 233 225 221 221 218 215 210 210 209 205 195 200 213 219 218 219 216 208 201 205 216 217 235 245 272 277 269 260 255 252 248 245 248
296 292 288 277 267 260 252 245 249 239 236 231 224 221 222 218 217 212 209 209 204 198 197 202 209 209 214 213 202 194 162 155 146 187 124 99 50 265 268 261 255 253 248
Height
10974 10975 10976 10977 10978 10976 10976 10976 10977 10979 10982 10986 10985 10988 10987 10987 10989 10992 10993 10995 10996 10997 10996 10996 10997 10998 10998 10997 10997 10997 10994 10993 10993 10991 10989 10986 10985 10983 10982 10981 10980 10979 10979
10971 10972 10972 10972 10972 10972 10971 10971 10972 10974 10977 10980 10982 10982 10984 10984 10989 10989 10989 10993 10995 10995 10995 10995 10995 10995 10996 10996 10996 10996 10994 10993 10993 10991 10990 10988 10987 10985 10984 10983 10982 10980 10980
10968 10968 10968 10968 10967 10966 10964 10962 10962 10965 10969 10972 10975 10976 10978 10981 10986 10988 10988 10990 10992 10993 10994 10994 10994 10994 10995 10995 10995 10995 10994 10994 10993 10991 10991 10989 10988 10987 10987 10985 10984 10983 10983
10965 10965 10965 10965 10963 10961 10959 10957 10955 10955 10958 10963 10967 10970 10972 10975 10981 10984 10986 10988 10991 10992 10992 10993 10993 10993 10995 10994 10994 10994 10994 10994 10993 10991 10991 10989 10989 10988 10989 10987 10987 10986 10985
10960 10961 10961 10960 10958 10955 10952 10950 10951 10952 10952 10956 10960 10964 10967 10971 10976 10980 10983 10986 10987 10989 10991 10992 10992 10993 10994 10994 10994 10994 10994 10994 10993 10992 10991 10990 10990 10990 10991 10990 10988 10987 10986
10957 10957 10957 10956 10954 10952 10949 10947 10947 10948 10948 10951 10954 10957 10961 10965 10970 10975 10979 10982 10985 10987 10990 10989 10990 10992 10993 10994 10994 10993 10993 10993 10993 10992 10992 10991 10991 10991 10992 10991 10990 10989 10988
10955 10954 10953 10953 10950 10948 10946 10946 10946 10945 10945 10945 10947 10952 10956 10960 10964 10970 10976 10979 10982 10985 10986 10987 10989 10991 10993 10993 10994 10994 10992 10991 10991 10992 10993 10992 10992 10992 10993 10992 10991 10991 10990
10951 10951 10950 10949 10947 10944 10942 10941 10940 10940 10940 10940 10941 10945 10951 10955 10960 10966 10972 10977 10980 10983 10982 10984 10987 10989 10991 10992 10992 10992 10992 10991 10990 10991 10993 10993 10993 10993 10993 10992 10992 10992 10991
10948 10947 10946 10946 10944 10941 10938 10936 10936 10934 10932 10931 10933 10939 10945 10951 10956 10964 10969 10974 10978 10978 10979 10982 10985 10988 10990 10991 10991 10992 10991 10991 10990 10991 10992 10992 10993 10993 10993 10992 10993 10993 10993
10943 10943 10943 10943 10942 10939 10936 10934 10933 10930 10926 10923 10926 10931 10938 10945 10952 10960 10965 10972 10975 10975 10978 10980 10984 10986 10988 10989 10990 10990 10990 10990 10990 10990 10992 10991 10992 10992 10992 10992 10992 10993 10993
10939 10939 10940 10940 10939 10936 10934 10932 10931 10928 10924 10920 10922 10926 10932 10940 10948 10956 10963 10970 10973 10973 10976 10979 10983 10984 10986 10988 10989 10989 10989 10990 10989 10990 10991 10990 10991 10991 10992 10991 10993 10993 10993
10936 10937 10937 10937 10937 10934 10932 10930 10929 10928 10924 10921 10920 10922 10928 10937 10946 10953 10960 10965 10967 10970 10974 10978 10980 10983 10985 10986 10987 10987 10988 10989 10989 10989 10989 10989 10990 10990 10991 10992 10993 10994 10994
10932 10933 10934 10935 10934 10933 10931 10929 10928 10927 10924 10921 10921 10922 10927 10935 10942 10949 10955 10961 10965 10969 10971 10975 10977 10980 10982 10984 10985 10985 10987 10988 10989 10989 10988 10989 10990 10989 10990 10991 10993 10994 10994
10928 10928 10930 10932 10932 10932 10930 10928 10928 10927 10925 10922 10921 10924 10928 10933 10938 10944 10951 10958 10963 10967 10971 10972 10974 10976 10980 10982 10982 10983 10984 10986 10987 10988 10988 10989 10990 10989 10989 10990 10992 10993 10993
10924 10924 10926 10928 10929 10929 10930 10927 10927 10927 10927 10926 10925 10925 10928 10932 10938 10944 10950 10954 10960 10964 10967 10969 10972 10974 10976 10979 10980 10981 10982 10982 10984 10985 10987 10987 10988 10989 10989 10990 10990 10992 10992
10920 10920 10921 10923 10925 10926 10928 10928 10926 10927 10929 10928 10928 10929 10931 10935 10940 10944 10948 10951 10956 10959 10963 10966 10969 10971 10973 10974 10976 10978 10979 10980 10982 10983 10985 10985 10987 10988 10989 10989 10990 10990 10991
10916 10917 10917 10919 10921 10923 10925 10926 10926 10926 10929 10930 10931 10933 10934 10935 10939 10942 10945 10949 10952 10954 10957 10961 10964 10967 10969 10971 10973 10975 10976 10977 10980 10981 10982 10983 10985 10987 10988 10988 10989 10989 10991
10911 10913 10914 10915 10916 10920 10922 10923 10923 10924 10925 10929 10932 10934 10936 10938 10940 10942 10943 10946 10948 10951 10954 10957 10960 10962 10964 10967 10969 10971 10973 10974 10977 10979 10979 10981 10983 10985 10986 10987 10988 10989 10990
10908 10907 10909 10910 10911 10914 10918 10919 10921 10922 10923 10924 10928 10933 10936 10937 10938 10941 10944 10946 10947 10949 10951 10954 10956 10958 10960 10962 10964 10967 10969 10971 10974 10976 10977 10979 10981 10982 10984 10985 10986 10988 10988
10906 10903 10902 10905 10906 10908 10912 10915 10916 10919 10920 10922 10924 10927 10930 10933 10936 10938 10940 10943 10945 10947 10948 10950 10952 10954 10957 10958 10960 10963 10966 10968 10971 10972 10974 10977 10978 10979 10981 10983 10984 10985 10986
10901 10902 10899 10897 10902 10903 10906 10909 10912 10914 10917 10918 10920 10922 10925 10928 10932 10936 10938 10940 10942 10944 10947 10949 10950 10952 10953 10954 10956 10958 10961 10963 10966 10968 10970 10973 10975 10975 10977 10979 10981 10982 10983
10895 10895 10895 10894 10892 10897 10899 10902 10906 10909 10912 10914 10917 10920 10921 10924 10927 10931 10935 10938 10939 10942 10944 10945 10948 10948 10949 10950 10952 10954 10957 10960 10962 10963 10966 10968 10971 10972 10973 10974 10976 10978 10979
10889 10888 10888 10888 10888 10886 10892 10894 10897 10901 10905 10910 10913 10915 10917 10920 10923 10926 10928 10933 10936 10938 10941 10943 10945 10946 10948 10948 10949 10951 10954 10958 10959 10961 10963 10965 10967 10968 10968 10969 10970 10972 10974
10880 10879 10880 10880 10880 10880 10880 10884 10887 10892 10898 10904 10908 10911 10915 10917 10919 10923 10924 10926 10929 10933 10935 10939 10941 10944 10945 10946 10948 10950 10951 10955 10957 10958 10959 10960 10961 10962 10963 10964 10966 10967 10968
10863 10865 10869 10869 10870 10871 10871 10872 10877 10881 10886 10894 10900 10905 10909 10913 10915 10918 10922 10922 10923 10926 10929 10932 10937 10941 10944 10945 10947 10949 10951 10953 10954 10955 10956 10955 10954 10955 10956 10957 10958 10959 10961
10851 10851 10852 10855 10857 10858 10861 10862 10865 10870 10876 10882 10889 10896 10902 10906 10910 10913 10916 10918 10918 10920 10922 10924 10929 10935 10940 10944 10946 10948 10950 10951 10952 10953 10952 10952 10951 10950 10949 10949 10950 10951 10953